Hundvaag 1 weather for Nov 1992
Month no. 65
Obs.
Da.
Temp. Dew Point Precip. Wind
Speed
Wind gusts Cloud cover Press. Humidity Wind dir. Sunny OPT
01.11.1992 6,3   24,3                
02.11.1992 5,3   11,1                
03.11.1992 6,7   18,1                
04.11.1992 5,0   5,1                
05.11.1992 9,2   4,1                
06.11.1992 6,0   26,1                
07.11.1992 6,8   22,7                
08.11.1992 2,0   0,6             1  
09.11.1992 6,9   0,0                
10.11.1992 5,8   5,2                
11.11.1992 4,0   10,5                
12.11.1992 4,1   0,8                
13.11.1992 3,8   11,4                
14.11.1992 3,9   2,1             1  
15.11.1992 0,0   0,0             1  
16.11.1992 -0,3   0,0             1  
17.11.1992 2,6   0,0                
18.11.1992 0,1   0,0             1  
19.11.1992 4,3   7,8                
20.11.1992 4,2   12,9                
21.11.1992 2,8   6,0                
22.11.1992 0,1   0,9             1  
23.11.1992 2,1   0,5                
24.11.1992 7,5   10,9                
25.11.1992 5,0   3,3                
26.11.1992 4,9   6,4                
27.11.1992 4,3   5,0                
28.11.1992 4,9   11,4                
29.11.1992 0,4   0,8                
30.11.1992 5,3   1,0                
                       
Avrg/Sum 4,1   209,1             6